Location: Rounton
(54.4000°N, 1.3500°W)
Time: 05:09:54
(UTC+00:00)

Vanguard 1 - Pass Details

Date: 01 December 2021
Orbit: 652 x 3830 km, 34.2° (Epoch: 17 January)

Event Time Altitude Azimuth Distance (km) Brightness Sun altitude
Exits shadow 06:42:48 - 267° (W) 6,835 13.8 -10.9°
Reaches altitude 10° 06:46:50 10° 259° (W) 6,061 13.6 -10.4°
Maximum altitude 06:56:42 18° 225° (SW) 4,540 13.3 -9.1°
Drops below altitude 10° 07:04:09 10° 188° (S) 4,369 13.6 -8.1°
Sets 07:08:27 0° 170° (S) 4,842 14.2 -7.5°
